Prague, Czech Republic

7:18 PM CET on February 12, 2016 (GMT +0100)
Ruzyne

Weather History for LKPR - March, 2013

Change the Weather History Date:

Friday, March 1, 2013

  Actual Average Record
Temperature  
Mean Temperature 34 °F -  
Max Temperature 35 °F 46 °F 55 °F (1997)
Min Temperature 32 °F 30 °F 10 °F (2005)
Degree Days  
Heating Degree Days 32    
Moisture  
Dew Point 28 °F    
Average Humidity 83    
Maximum Humidity 93    
Minimum Humidity 66    
Precipitation  
Precipitation 0.00 in 0.04 in - ()
Sea Level Pressure  
Sea Level Pressure 30.14 in    
Wind  
Wind Speed 7 mph ()    
Max Wind Speed 12 mph    
Max Gust Speed -    
Visibility 6.3 miles    
Events      
Averages and records for this station are not official NWS values.
T = Trace of Precipitation, MM = Missing Value Source: Averaged Metar Reports

Daily Weather History Graph

Daily Weather History Graph

Search for Another Location

Airport or City:

Trip Planner

Search our weather history database for the weather conditions in past years. The results will help you decide how hot, cold, wet, or windy it might be!

Date:

Astronomy

Mar. 01, 2013 Rise Set
Actual Time 6:46 AM CET 5:44 PM CET
Civil Twilight 6:13 AM CET 6:17 PM CET
Nautical Twilight 5:36 AM CET 6:55 PM CET
Astronomical Twilight 4:58 AM CET 7:32 PM CET
Moon 10:30 PM CET (3/1) 7:54 AM CET (3/1)
Length of Visible Light 12h 03m
Length of Day
10h 58m
Waning Gibbous, 85% of the Moon is Illuminated
Mar 1
Waning Gibbous
Mar 4
Last Quarter
Mar 11
New
Mar 19
First Quarter
Mar 27
Full

Hourly Weather History & Observations

Time (CET) Temp. Windchill Dew Point Humidity Pressure Visibility Wind Dir Wind Speed Gust Speed Precip Events Conditions
12:00 AM 32.0 °F 24.2 °F 30.2 °F 93% 30.15 in 6.2 mi West 9.2 mph - N/A   Overcast
12:30 AM 32.0 °F 26.4 °F 30.2 °F 93% 30.15 in 6.2 mi West 5.8 mph - N/A   Overcast
1:00 AM 33 °F - 30 °F 83% 30.23 in 6 mi WNW 6.7 mph - -   Overcast
1:00 AM 32.0 °F 25.6 °F 30.2 °F 93% 30.15 in 6.2 mi West 6.9 mph - N/A   Overcast
1:30 AM 32.0 °F 24.8 °F 30.2 °F 93% 30.15 in 6.2 mi West 8.1 mph - N/A   Overcast
2:00 AM 32.0 °F 25.6 °F 30.2 °F 93% 30.15 in 6.2 mi West 6.9 mph - N/A   Overcast
2:30 AM 33.8 °F 28.6 °F 30.2 °F 87% 30.12 in 6.2 mi West 5.8 mph - N/A   Overcast
3:00 AM 32.0 °F 26.4 °F 30.2 °F 93% 30.12 in 6.2 mi West 5.8 mph - N/A   Overcast
3:30 AM 32.0 °F 26.4 °F 30.2 °F 93% 30.12 in 6.2 mi West 5.8 mph - N/A   Overcast
4:00 AM 32.0 °F 27.5 °F 30.2 °F 93% 30.12 in 6.2 mi WNW 4.6 mph - N/A   Overcast
4:30 AM 32.0 °F 25.6 °F 30.2 °F 93% 30.12 in 6.2 mi West 6.9 mph - N/A   Overcast
5:00 AM 32.0 °F 25.6 °F 30.2 °F 93% 30.12 in 6.2 mi West 6.9 mph - N/A   Overcast
5:30 AM 32.0 °F 25.6 °F 30.2 °F 93% 30.12 in 6.2 mi West 6.9 mph - N/A   Overcast
6:00 AM 32.0 °F 24.8 °F 28.4 °F 87% 30.12 in 6.2 mi West 8.1 mph - N/A   Overcast
6:30 AM 32.0 °F 25.6 °F 28.4 °F 87% 30.09 in 6.2 mi West 6.9 mph - N/A   Overcast
7:00 AM 32 °F - 29 °F 83% 30.18 in 6 mi West 8.9 mph - -   Overcast
7:00 AM 32.0 °F 25.6 °F 28.4 °F 87% 30.09 in 6.2 mi West 6.9 mph - N/A   Overcast
7:30 AM 32.0 °F 25.6 °F 28.4 °F 87% 30.09 in 6.2 mi West 6.9 mph - N/A   Overcast
8:00 AM 32.0 °F 26.4 °F 28.4 °F 87% 30.12 in 6.2 mi West 5.8 mph - N/A   Overcast
8:30 AM 32.0 °F 25.6 °F 28.4 °F 87% 30.12 in 6.2 mi West 6.9 mph - N/A   Overcast
9:00 AM 32.0 °F 25.6 °F 28.4 °F 87% 30.12 in 6.2 mi WNW 6.9 mph - N/A   Overcast
9:30 AM 32.0 °F 26.4 °F 28.4 °F 87% 30.12 in 6.2 mi NW 5.8 mph - N/A   Overcast
10:00 AM 33.8 °F 28.6 °F 28.4 °F 81% 30.12 in 6.2 mi WNW 5.8 mph - N/A   Overcast
10:30 AM 33.8 °F 27.7 °F 28.4 °F 81% 30.12 in 6.2 mi WNW 6.9 mph - N/A   Overcast
11:00 AM 33.8 °F 27.0 °F 28.4 °F 81% 30.12 in 6.2 mi WNW 8.1 mph - N/A   Overcast
11:30 AM 33.8 °F 28.6 °F 28.4 °F 81% 30.12 in 6.2 mi West 5.8 mph - N/A   Overcast
12:00 PM 33.8 °F 27.7 °F 30.2 °F 87% 30.12 in 6.2 mi West 6.9 mph - N/A   Overcast
12:30 PM 35.6 °F 29.2 °F 28.4 °F 75% 30.12 in 6.2 mi West 8.1 mph - N/A   Overcast
1:00 PM 35 °F - 28 °F 66% 30.18 in 12 mi NW 11.2 mph - -   Overcast
1:00 PM 35.6 °F 27.5 °F 28.4 °F 75% 30.12 in 6.2 mi WNW 11.5 mph - N/A   Overcast
1:30 PM 35.6 °F 28.0 °F 28.4 °F 75% 30.12 in 6.2 mi NW 10.4 mph - N/A   Mostly Cloudy
2:00 PM 35.6 °F 28.6 °F 28.4 °F 75% 30.12 in 6.2 mi NW 9.2 mph - N/A   Mostly Cloudy
2:30 PM 35.6 °F 28.0 °F 28.4 °F 75% 30.09 in 6.2 mi WNW 10.4 mph - N/A   Mostly Cloudy
3:00 PM 35.6 °F 28.0 °F 28.4 °F 75% 30.09 in 6.2 mi WNW 10.4 mph - N/A   Mostly Cloudy
3:30 PM 33.8 °F 27.0 °F 28.4 °F 81% 30.12 in 6.2 mi NW 8.1 mph - N/A   Mostly Cloudy
4:00 PM 33.8 °F 25.3 °F 26.6 °F 75% 30.12 in 6.2 mi NW 11.5 mph - N/A   Mostly Cloudy
4:30 PM 33.8 °F 25.8 °F 26.6 °F 75% 30.12 in 6.2 mi WNW 10.4 mph - N/A   Mostly Cloudy
5:00 PM 33.8 °F 26.4 °F 26.6 °F 75% 30.12 in 6.2 mi WNW 9.2 mph - N/A   Mostly Cloudy
5:30 PM 33.8 °F 27.0 °F 26.6 °F 75% 30.12 in 6.2 mi WNW 8.1 mph - N/A   Mostly Cloudy
6:00 PM 33.8 °F 27.0 °F 26.6 °F 75% 30.12 in 6.2 mi NW 8.1 mph - N/A   Overcast
6:30 PM 33.8 °F 27.0 °F 26.6 °F 75% 30.15 in 6.2 mi NW 8.1 mph - N/A   Overcast
7:00 PM 33 °F - 27 °F 72% 30.22 in 8 mi NW 6.7 mph - -   Overcast
7:00 PM 32.0 °F 24.8 °F 26.6 °F 80% 30.15 in 6.2 mi NW 8.1 mph - N/A   Overcast
7:30 PM 32.0 °F 24.8 °F 26.6 °F 80% 30.15 in 6.2 mi NW 8.1 mph - N/A   Overcast
8:00 PM 32.0 °F 24.8 °F 26.6 °F 80% 30.15 in 6.2 mi NW 8.1 mph - N/A   Mostly Cloudy
8:30 PM 32.0 °F 25.6 °F 26.6 °F 80% 30.15 in 6.2 mi WNW 6.9 mph - N/A   Mostly Cloudy
9:00 PM 32.0 °F 25.6 °F 26.6 °F 80% 30.15 in 6.2 mi WNW 6.9 mph - N/A   Mostly Cloudy
9:30 PM 32.0 °F 25.6 °F 26.6 °F 80% 30.18 in 6.2 mi WNW 6.9 mph - N/A   Mostly Cloudy
10:00 PM 32.0 °F 27.5 °F 26.6 °F 80% 30.18 in 6.2 mi WNW 4.6 mph - N/A   Mostly Cloudy
10:30 PM 32.0 °F 26.4 °F 26.6 °F 80% 30.18 in 6.2 mi NW 5.8 mph - N/A   Mostly Cloudy
11:00 PM 32.0 °F 28.7 °F 26.6 °F 80% 30.18 in 6.2 mi NW 3.5 mph - N/A   Mostly Cloudy
11:30 PM 32.0 °F 28.7 °F 26.6 °F 80% 30.21 in 6.2 mi WNW 3.5 mph - N/A   Mostly Cloudy